TimeEDT,TemperatureF,Dew PointF,Humidity,Sea Level PressureIn,VisibilityMPH,Wind Direction,Wind SpeedMPH,Gust SpeedMPH,PrecipitationIn,Events,Conditions,WindDirDegrees,DateUTC
12:53 AM,80.1,75.0,85,29.89,10.0,Calm,Calm,-,N/A,,Clear,0,2013-09-23 04:53:00
1:53 AM,81.0,75.0,82,29.89,10.0,SSW,3.5,-,N/A,,Clear,210,2013-09-23 05:53:00
2:53 AM,79.0,75.0,88,29.89,10.0,Calm,Calm,-,N/A,,Clear,0,2013-09-23 06:53:00
3:53 AM,79.0,75.9,90,29.89,10.0,South,3.5,-,N/A,,Clear,190,2013-09-23 07:53:00
4:53 AM,79.0,75.0,88,29.88,10.0,Calm,Calm,-,N/A,,Mostly Cloudy,0,2013-09-23 08:53:00
5:53 AM,79.0,75.0,88,29.88,10.0,South,3.5,-,N/A,,Clear,190,2013-09-23 09:53:00
6:53 AM,79.0,75.0,88,29.90,10.0,SSE,3.5,-,N/A,,Clear,160,2013-09-23 10:53:00
7:53 AM,80.1,75.9,87,29.93,10.0,Calm,Calm,-,N/A,,Partly Cloudy,0,2013-09-23 11:53:00
8:53 AM,81.0,75.0,82,29.94,10.0,South,3.5,-,N/A,,Clear,190,2013-09-23 12:53:00
9:53 AM,84.0,75.0,74,29.95,10.0,South,6.9,-,N/A,,Partly Cloudy,180,2013-09-23 13:53:00
10:53 AM,86.0,75.9,72,29.96,10.0,South,9.2,-,N/A,,Scattered Clouds,190,2013-09-23 14:53:00
11:53 AM,84.9,73.0,67,29.95,10.0,SW,6.9,-,N/A,,Clear,220,2013-09-23 15:53:00
12:53 PM,89.1,75.0,63,29.94,10.0,South,8.1,-,N/A,,Partly Cloudy,180,2013-09-23 16:53:00
1:25 PM,78.8,75.2,89,29.95,1.0,South,13.8,27.6,0.26,Rain,Heavy Rain,190,2013-09-23 17:25:00
1:53 PM,78.1,75.0,90,29.94,5.0,SE,9.2,-,0.29,,Scattered Clouds,140,2013-09-23 17:53:00
2:53 PM,78.1,75.0,90,29.95,4.0,SE,15.0,25.3,0.07,Rain,Heavy Rain,140,2013-09-23 18:53:00
3:53 PM,79.0,73.9,84,29.93,10.0,SE,3.5,-,0.03,,Mostly Cloudy,140,2013-09-23 19:53:00
4:53 PM,82.0,75.9,82,29.92,10.0,Calm,Calm,-,N/A,,Clear,0,2013-09-23 20:53:00
5:53 PM,82.0,73.9,76,29.93,10.0,SSE,4.6,-,N/A,,Clear,160,2013-09-23 21:53:00
6:53 PM,82.0,78.1,88,29.94,10.0,ESE,4.6,-,N/A,,Clear,120,2013-09-23 22:53:00
7:53 PM,82.0,78.1,88,29.96,10.0,SE,6.9,-,N/A,,Clear,140,2013-09-23 23:53:00
8:53 PM,81.0,78.1,91,29.98,10.0,SE,4.6,-,N/A,,Clear,140,2013-09-24 00:53:00
9:53 PM,81.0,78.1,91,29.99,10.0,ESE,3.5,-,N/A,,Clear,120,2013-09-24 01:53:00
10:53 PM,80.1,78.1,94,29.99,10.0,SSE,3.5,-,N/A,,Partly Cloudy,160,2013-09-24 02:53:00
11:53 PM,81.0,78.1,91,29.98,10.0,SSE,5.8,-,N/A,,Scattered Clouds,160,2013-09-24 03:53:00